Reflectivity
-20 -20 -20 -20 -12 14 5 24 -15 33 -19 -11 -20 -20 8 -20 -0 23 26 -13 -13 28 -20 -20 -20 -20 -20 -20 -15 -20 -20 -20 -15 -20 -20 -20 -20 -20 -20 -20 -20 -19 12 -20
-20 -20 -20 -20 -20 -20 -20 -20 -12 -20 -20 -20 -20 -20 -20 -20 -20 -18 27 -1 14 -20 19 -20 -12 -20 -20 -20 -16 31 -3 -20 -20 -20 -20 -20 -20 -20 -20 19 -20 -20 -20 -20
-20 -20 -20 -20 -20 -20 -20 -4 -11 1 15 -20 -20 -20 -20 -20 16 -16 21 28 24 -16 34 4 -10 -20 -20 -20 -20 -20 -20 -9 -20 -20 -20 -20 -20 -20 14 -12 -20 -20 -20 -20
-20 -20 -20 -20 -20 -20 -13 6 -11 -6 -20 -20 3 -20 -20 -11 -6 9 25 23 -18 7 11 29 -18 -20 -20 -20 -20 -20 -20 -2 -20 -20 -11 -20 -20 -20 -18 -20 -20 -20 -20 -20
-20 -20 -20 -20 -20 -20 9 -9 20 -20 -3 -20 -20 -20 -20 -18 -20 -16 12 -20 -20 -19 -20 30 -15 -20 -20 -20 -20 -20 -20 -18 -18 -20 2 -19 -20 -20 -20 -20 -20 -20 -20 -20
-20 -20 -20 -20 -20 -20 -20 -20 -20 -20 -20 -20 -16 -20 -18 23 -20 -20 4 -20 -17 -13 23 -20 -20 -20 -20 -20 -20 -20 -20 19 18 -20 -20 -20 -20 25 -20 -20 -20 -20 -20 -20
-20 -20 -20 -20 -20 -20 -20 -20 -20 -18 -11 -2 -9 -16 5 27 -13 -20 23 11 -20 -20 -20 -12 13 -7 -15 -13 -20 -20 -20 -20 -20 -20 -20 -20 -20 -20 -7 -20 -20 -20 -20 -20
-20 -20 -20 -20 -20 -20 -20 -20 -8 3 29 -12 -0 -19 8 11 -20 -20 -20 -6 4 17 -18 -20 -20 -20 -20 11 -20 -20 -20 -20 -20 -20 -7 25 -20 -20 -20 -10 -11 -13 -20 -20
-20 -20 -20 -20 -20 -20 -20 -20 -17 24 -7 -20 -18 8 -18 -20 -20 -20 -20 -20 21 -18 5 21 -3 -20 -20 -20 -20 -20 -20 -20 -20 -20 -20 23 14 -20 -20 -20 -20 -20 -20 10
-20 -6 -20 -20 -20 -20 -20 -1 -20 -20 -18 -19 24 46 -6 -20 -20 -20 -20 -20 -16 -17 -4 26 13 -20 -20 -20 -20 -20 -20 -20 -20 -20 -20 -20 -20 -20 -20 -20 33 -20 -20 -16
-20 -20 9 -20 -20 6 -20 5 -20 -17 9 23 -4 31 14 -18 -20 -20 -20 -20 -20 -20 -4 17 27 -20 -20 -20 -20 -20 -20 -20 -20 -20 -20 -20 -20 -20 -20 -20 -20 -20 -20 -20
-20 -20 -20 25 6 21 30 22 4 2 10 -12 -18 41 14 -20 -20 -20 -20 -20 -20 -20 -20 11 9 3 -20 -20 -20 -20 -20 -20 -20 -20 -20 -20 -20 -20 -20 -20 -20 -5 -18 -20
-18 -20 -19 -17 -2 -13 -16 2 30 3 5 -20 -14 23 33 -10 -20 -20 -20 -20 -20 -20 -16 30 12 35 -18 -17 16 -20 -20 -20 -20 -20 -20 -20 -20 -20 -20 3 -19 21 -13 -12
-20 -20 -20 16 8 24 -14 17 6 25 24 14 -10 -7 31 -14 -20 -20 -20 -20 -20 -20 -20 21 31 49 35 -16 31 -20 -20 -20 -20 -20 -20 -20 -20 -20 -20 -20 -20 -20 -8 -20
-20 -20 -20 -2 -20 -15 -15 20 24 0 20 13 -2 2 39 30 -13 -20 -20 -20 -20 -20 4 20 26 36 -20 -20 -1 39 -1 -20 -20 -20 -20 -20 -20 -20 -20 -20 -20 -20 -20 -20
-20 -20 -20 -20 4 -20 -20 -6 -17 -20 -4 20 35 40 12 -10 -2 -11 -20 -20 -20 5 -20 11 24 28 22 -5 -20 -19 -18 -20 -20 29 -20 8 26 25 -2 -20 22 23 23 20
-20 -20 -8 -20 -5 -10 -20 -20 -20 -20 -20 -0 10 36 6 -17 -20 -20 -7 -7 -10 -4 26 -3 5 14 7 11 -13 -20 -11 -6 -17 14 28 -15 -16 -18 18 -6 28 -9 -20 25
-20 -20 -20 -20 10 3 22 7 -20 -1 -20 -20 -19 1 -16 -11 -20 -20 -20 -18 -20 -4 31 27 16 12 7 13 10 7 1 12 26 14 -2 29 -20 5 6 -7 -11 -16 -20 5
-20 -20 -20 -20 -20 2 -12 -19 -20 -20 -20 11 -20 -16 -20 -20 -20 -20 -20 -20 -20 -20 -20 -16 29 17 16 29 19 4 12 12 10 25 22 29 31 26 -19 -15 -20 -14 26 24
-20 -20 -20 -20 -20 -20 -17 28 -20 -20 -20 -17 35 -15 -20 -20 -20 -17 -20 -20 -20 -20 -12 -20 -2 -0 1 15 13 7 1 21 16 26 32 2 20 29 -13 -1 19 10 -20 -12
-20 -20 -20 -20 -20 -11 -2 -20 -20 -20 -20 -20 -20 -20 -20 -20 -20 -20 -20 -20 -20 -20 -18 -5 5 2 -7 2 -1 9 27 21 27 22 32 30 15 27 11 14 7 22 16 -10
-20 -20 -20 -20 -13 17 16 -20 -20 -20 -20 -20 -20 -20 -20 -20 -20 -20 -20 -20 -20 -20 -20 -20 -20 -2 -6 -2 2 10 -2 17 26 24 35 37 35 30 30 32 22 -8 18 20
-20 -20 -9 8 27 -18 -20 -20 -20 -20 -20 -20 -20 -20 -20 -20 -20 -20 -20 -20 -20 -20 -20 -20 -2 3 -5 -4 -12 20 6 4 29 31 37 39 35 36 33 20 25 3 -19 -19
-19 -20 -20 -20 -20 -20 -20 -20 -20 -20 -20 -20 -20 -20 -20 -20 -20 -20 -20 -20 -20 -20 -2 -5 -3 -12 -20 -11 -2 14 14 4 4 7 11 28 25 11 21 5 1 -10 -18 -16
18 9 19 -20 -20 -20 -20 -20 -20 -20 -20 -20 -20 -20 -20 -20 -20 -20 -20 -20 -20 -20 -20 -13 -4 -20 -20 -12 7 19 5 -2 16 12 -8 2 9 -0 0 -6 -12 -14 -20 -20
-8 -20 -11 -5 28 -17 -20 -20 -20 -20 -20 -20 -20 -20 -20 -20 -20 -20 -20 -20 -20 -20 -13 -17 -17 -4 -20 -14 -3 13 21 18 16 5 7 1 -14 -20 5 -10 -20 -12 -20 -20
Wind_Speed
15 13 15 17 17 3 4 3 13 6 8 5 7 9 18 17 14 14 11 16 8 20 22 12 9 13 15 15 10 9 8 6 9 9 9 7 9 7 7 5 7 5 6 3
12 16 15 18 12 5 7 7 5 7 6 6 7 5 14 21 21 17 15 13 15 14 15 22 9 14 16 17 14 13 12 11 9 9 8 7 7 8 5 4 7 7 6 4
13 14 15 6 4 9 12 1 6 9 11 9 8 11 14 15 17 18 16 15 19 18 21 18 14 14 14 15 15 14 13 13 11 9 7 7 6 4 3 6 7 7 6 7
13 3 5 9 14 13 14 7 9 2 9 2 14 4 13 17 15 17 16 22 20 16 10 14 21 13 15 15 14 17 15 13 10 10 6 7 7 7 6 5 6 10 8 8
9 3 9 15 16 12 13 9 11 6 9 15 14 8 7 18 16 18 22 26 24 15 23 16 22 16 13 16 14 15 13 12 12 10 5 10 9 7 8 8 8 5 7 6
6 5 11 13 10 7 12 4 7 9 13 13 14 12 2 8 15 18 24 26 24 20 19 18 18 19 12 16 15 15 15 13 12 12 8 9 8 7 7 6 7 8 9 8
11 11 9 8 8 12 12 14 12 13 11 2 11 9 8 15 8 19 26 24 20 21 17 18 16 18 15 15 15 15 16 14 14 13 12 10 10 7 4 5 8 7 8 9
9 15 16 13 16 13 15 18 12 2 11 5 15 5 3 7 3 5 25 25 22 20 14 16 17 17 18 17 15 15 17 15 15 14 12 10 11 5 6 9 3 6 3 4
3 4 12 10 14 16 12 15 21 2 17 7 4 5 11 8 7 5 10 17 20 18 15 11 22 17 18 15 16 15 16 15 16 16 12 10 9 11 10 6 8 5 4 2
3 3 6 10 9 11 16 9 12 7 10 7 11 12 3 6 9 7 3 12 18 20 19 11 19 19 16 15 16 15 15 16 15 16 14 12 13 13 10 5 8 6 4 7
13 4 11 9 11 7 7 13 15 4 5 7 3 1 6 5 9 8 6 4 8 13 18 17 8 16 17 17 14 16 15 15 15 15 13 13 13 12 10 8 8 9 8 6
5 13 1 10 7 10 9 14 14 10 9 9 4 4 19 7 10 10 8 4 11 10 3 2 8 7 11 10 13 15 15 15 14 14 12 13 12 12 13 13 12 8 10 10
12 10 9 16 19 18 16 18 5 8 10 4 4 4 11 4 10 11 10 7 8 11 5 3 6 15 6 8 11 14 13 14 14 13 14 13 13 13 12 10 11 10 11 11
6 15 17 1 4 8 20 4 21 16 5 13 11 6 16 5 11 10 10 9 7 14 13 5 4 14 6 7 7 7 14 12 12 13 14 12 13 13 13 11 10 11 10 10
9 13 11 3 11 23 13 6 19 11 3 17 6 14 8 8 8 12 8 8 6 11 13 8 8 9 4 5 10 5 4 8 10 11 10 11 10 11 11 10 9 10 10 10
9 9 7 13 11 10 15 14 6 9 4 21 24 18 12 9 8 10 9 8 12 9 13 16 15 9 1 4 2 4 4 3 3 6 8 7 6 8 8 8 9 10 10 10
2 12 6 12 8 16 15 13 10 8 10 6 9 7 11 7 8 7 7 7 7 9 8 8 6 6 5 3 2 2 0 6 3 5 7 9 10 10 10 11 10 10 11 10
7 8 10 5 4 6 13 3 1 11 4 7 4 10 11 8 9 5 5 6 6 6 6 5 6 2 4 4 4 4 5 3 8 5 8 7 8 9 8 9 10 10 10 11
6 9 9 11 9 4 14 7 6 6 7 1 3 10 5 7 10 7 7 4 6 5 5 2 4 5 3 4 4 5 5 8 8 8 8 6 9 7 3 7 8 7 9 10
13 8 11 10 11 11 7 4 8 5 10 17 2 6 4 4 6 8 5 4 6 5 5 3 0 3 4 4 4 7 11 12 11 7 6 4 2 4 5 4 5 2 6 9
9 9 12 12 11 5 12 7 5 5 4 9 5 7 3 6 10 7 4 5 6 5 3 4 4 4 4 5 6 6 5 10 7 5 4 2 2 2 3 4 3 3 3 3
5 7 10 10 11 6 3 3 3 8 2 4 6 5 5 6 4 6 3 3 6 4 4 5 5 6 6 7 6 2 5 3 9 8 7 3 1 4 4 5 5 5 7 7
8 10 7 7 3 4 2 3 7 4 4 2 4 4 4 3 2 4 2 4 5 5 4 5 6 6 7 8 8 5 5 5 5 8 9 9 6 6 5 6 5 5 5 4
10 4 5 6 6 6 3 5 1 3 3 5 4 4 1 1 3 4 3 3 4 8 4 5 6 8 8 8 7 6 5 5 7 9 9 7 7 8 8 6 5 5 5 4
10 0 12 8 9 5 6 6 6 5 6 6 5 4 3 0 2 1 5 4 5 5 4 5 6 7 6 5 6 6 6 5 7 8 7 7 5 6 8 8 6 5 5 3
6 9 10 3 3 8 3 9 7 8 8 7 6 4 3 1 3 1 4 4 7 4 4 6 6 6 7 5 6 7 5 5 6 7 5 5 4 5 5 6 8 14 9 11
Wind_Direction
206 218 214 211 233 47 214 256 95 279 128 209 232 185 169 175 193 196 246 261 225 220 150 158 198 155 151 143 153 150 149 171 167 174 182 170 171 173 177 171 110 171 126 107
188 224 227 247 229 215 237 250 166 108 156 235 247 254 167 184 197 191 221 248 273 238 156 161 226 169 160 156 168 147 165 179 181 182 195 181 175 170 177 133 158 177 185 176
225 208 241 188 232 247 243 280 5 104 234 223 259 242 185 184 197 184 210 234 255 265 154 164 184 180 167 159 154 159 177 175 212 161 169 187 178 142 154 145 174 185 197 200
238 212 132 213 239 225 256 341 171 41 270 127 248 316 198 184 192 189 201 226 237 237 181 215 164 213 175 162 174 161 178 178 195 185 144 171 203 190 195 186 193 152 196 217
178 165 207 229 226 210 106 226 249 259 277 274 245 240 130 168 203 187 200 209 225 242 228 189 159 187 179 159 174 168 179 169 187 209 251 172 209 194 175 199 124 267 176 207
333 231 213 228 230 248 264 212 243 239 248 259 257 226 137 210 200 189 194 204 210 238 195 183 172 161 201 162 173 169 166 182 190 200 193 231 229 280 188 193 158 207 176 190
198 197 228 255 235 215 234 234 234 221 209 265 26 292 99 211 156 176 188 210 198 225 205 192 172 155 169 176 179 166 172 182 190 196 195 196 236 237 111 180 213 244 201 184
216 177 196 182 241 217 214 245 255 22 277 34 322 219 177 89 90 212 177 191 209 194 227 187 189 163 165 200 181 178 169 187 190 191 201 195 209 214 227 200 281 230 308 211
222 169 159 195 211 249 201 228 264 95 245 237 314 102 184 64 82 133 191 179 195 199 210 277 181 183 174 178 177 193 169 189 194 192 197 185 205 220 213 265 201 225 272 5
358 267 187 173 229 235 269 313 236 196 234 267 189 275 108 27 52 86 171 177 176 193 211 190 219 178 186 174 179 198 180 187 196 200 198 200 197 215 233 196 234 272 252 253
302 232 266 151 211 8 220 234 254 291 116 265 13 313 9 69 50 38 126 188 147 221 202 196 248 174 187 182 176 188 189 185 197 200 197 206 202 200 202 222 226 219 238 244
303 313 331 356 138 168 255 280 346 353 319 57 45 245 318 56 53 44 79 88 113 146 178 306 348 197 177 179 173 185 186 191 195 199 200 202 215 214 203 200 209 199 220 235
338 262 258 209 195 162 204 136 183 67 296 59 140 218 241 113 71 43 47 82 112 129 118 331 21 285 152 176 169 182 194 196 192 200 197 211 201 211 226 204 215 198 186 222
289 274 283 126 258 261 288 292 147 145 202 273 231 240 293 91 90 66 21 354 91 159 158 156 353 275 19 347 20 205 186 199 201 193 207 203 215 218 222 221 224 215 200 217
261 278 307 305 171 214 168 276 275 222 73 210 353 314 91 65 55 63 21 357 114 133 170 157 199 263 283 307 295 303 353 195 190 203 206 203 204 216 223 226 224 226 228 214
260 274 284 290 276 264 268 235 281 310 255 114 139 232 68 82 57 55 47 20 25 90 133 179 190 147 179 210 279 266 222 313 279 223 236 241 230 231 239 240 247 234 229 226
338 291 276 261 45 338 262 249 240 222 240 251 327 113 113 99 79 63 47 54 47 19 5 118 142 168 172 197 192 233 14 346 233 243 246 224 228 236 232 233 230 227 230 233
260 246 277 267 221 224 290 85 319 279 346 315 261 73 68 99 100 88 72 57 54 62 29 18 5 208 224 253 248 300 249 262 290 246 258 239 223 226 227 241 245 238 232 228
274 269 248 261 245 222 204 191 220 240 288 354 257 113 110 118 143 109 93 66 65 76 92 42 314 334 20 286 220 216 252 225 230 255 232 271 217 225 267 239 249 251 245 231
269 193 279 253 290 257 59 38 47 353 273 173 213 89 5 350 256 94 113 103 94 76 86 111 145 236 235 241 253 244 244 217 212 214 245 250 213 251 263 279 275 287 233 236
214 247 232 226 249 272 122 117 120 241 66 42 43 65 4 32 55 100 93 94 75 46 60 55 38 22 327 317 289 285 213 197 189 156 221 202 10 212 354 313 302 237 227 175
227 212 237 237 262 253 59 147 277 65 118 99 73 67 76 69 89 85 107 94 82 53 33 38 38 27 358 347 317 346 28 351 187 179 182 132 24 58 75 88 64 63 66 52
247 268 333 323 79 40 110 37 77 301 151 64 82 103 112 130 127 94 77 57 83 63 40 47 38 35 18 11 357 68 29 48 62 85 109 103 105 82 102 103 109 85 94 102
241 234 255 279 182 162 184 106 165 238 99 118 121 121 76 63 121 146 146 95 48 84 44 57 52 41 26 15 16 22 13 61 100 111 105 115 111 112 96 76 86 102 95 89
102 213 288 223 172 168 199 219 198 200 148 138 122 94 79 60 136 139 140 126 92 79 90 74 76 75 46 24 35 34 30 47 80 89 94 104 97 95 88 66 33 84 58 24
231 216 237 269 110 199 264 181 204 190 180 168 152 117 79 86 104 163 124 93 108 114 118 113 97 89 84 50 58 63 63 73 88 88 77 76 88 98 102 107 89 53 57 52